Tracking 19570 objects as of 22-Feb-2019
HD Live streaming from Space Station
objects crossing your sky now

FLOCK 3P 69

Track FLOCK 3P 69 now!
10-day predictions
FLOCK 3P 69 is classified as:


NORAD ID: 42020
Int'l Code: 2017-008CA
Perigee: 492.2 km
Apogee: 503.2 km
Inclination: 97.4 °
Period: 94.4 minutes
Semi major axis: 6868 km
RCS: Unknown
Launch date: February 15, 2017
Source: United States (US)
Launch site: SRIHARIKOTA (SRI)
aabbcc
Your satellite tracking list
Your tracking list is empty




NASA's NSSDC Master Catalog

Two Line Element Set (TLE):
1 42020U 17008CA  19053.16693534  .00001237  00000-0  52344-4 0  9994
2 42020  97.4232 121.5764 0008013 183.4421 176.6763 15.25072146110920
Source of the keplerian elements: AFSPC